Weather History for Gulfport, MS

Change the Weather History Date:

Monday, December 2, 2013

  Actual Average Record
Temperature  
Mean Temperature 57 °F -  
Max Temperature 66 °F 65 °F 77 °F (1961)
Min Temperature 48 °F 47 °F 28 °F (1960)
Degree Days  
Heating Degree Days 8    
Growing Degree Days 7 (Base 50)    
Moisture  
Dew Point 52 °F    
Average Humidity 79    
Maximum Humidity 93    
Minimum Humidity 54    
Precipitation  
Precipitation 0.00 in - - ()
Sea Level Pressure  
Sea Level Pressure 29.88 in    
Wind  
Wind Speed 2 mph (South)    
Max Wind Speed 8 mph    
Max Gust Speed -    
Visibility 9 miles    
Events Rain    
Averages and records for this station are not official NWS values.
T = Trace of Precipitation, MM = Missing Value Source: NWS Daily Summary

Daily Weather History Graph

Daily Weather History Graph

Search for Another Location

Airport:

Trip Planner

Search our weather history database for the weather conditions in past years. The results will help you decide how hot, cold, wet, or windy it might be!

Date:

Astronomy

Dec. 02, 2013 Rise Set
Actual Time 6:36 AM CST 4:55 PM CST
Civil Twilight 6:10 AM CST 5:21 PM CST
Nautical Twilight 5:40 AM CST 5:51 PM CST
Astronomical Twilight 5:11 AM CST 6:20 PM CST
Moon 6:04 AM CST (12/2) 4:55 PM CST (12/2)
Length of Visible Light 11h 11m
Length of Day
10h 18m
Waning Crescent, 0% of the Moon is Illuminated
Dec 2
Waning Crescent
Dec 2
New
Dec 9
First Quarter
Dec 17
Full
Dec 25
Last Quarter

Hourly Weather History & Observations

Time (CST) Temp. Dew Point Humidity Pressure Visibility Wind Dir Wind Speed Gust Speed Precip Events Conditions
12:53 AM 53.1 °F 51.1 °F 93% 30.00 in 9.0 mi Calm Calm - N/A   Clear
1:53 AM 53.1 °F 50.0 °F 89% 30.00 in 10.0 mi Calm Calm - N/A   Clear
2:53 AM 54.0 °F 51.1 °F 90% 29.98 in 10.0 mi Calm Calm - N/A   Clear
3:53 AM 53.1 °F 50.0 °F 89% 29.95 in 10.0 mi Calm Calm - N/A   Clear
4:53 AM 51.1 °F 48.9 °F 92% 29.95 in 5.0 mi Calm Calm - N/A   Clear
5:53 AM 50.0 °F 46.9 °F 89% 29.94 in 5.0 mi Calm Calm - N/A   Clear
6:53 AM 48.9 °F 46.0 °F 90% 29.94 in 5.0 mi Calm Calm - N/A   Scattered Clouds
7:53 AM 54.0 °F 51.1 °F 90% 29.94 in 5.0 mi Calm Calm - N/A   Mostly Cloudy
8:53 AM 59.0 °F 51.1 °F 75% 29.93 in 9.0 mi Calm Calm - N/A   Partly Cloudy
9:53 AM 64.0 °F 48.9 °F 58% 29.93 in 10.0 mi Calm Calm - N/A   Scattered Clouds
10:53 AM 64.0 °F 52.0 °F 65% 29.91 in 10.0 mi South 4.6 mph - N/A   Mostly Cloudy
11:53 AM 66.0 °F 51.1 °F 59% 29.87 in 10.0 mi South 8.1 mph - N/A   Partly Cloudy
12:53 PM 64.9 °F 50.0 °F 58% 29.85 in 10.0 mi South 4.6 mph - N/A   Scattered Clouds
1:53 PM 64.0 °F 46.9 °F 54% 29.83 in 10.0 mi SSE 8.1 mph - N/A   Scattered Clouds
2:53 PM 62.1 °F 46.0 °F 56% 29.82 in 10.0 mi South 4.6 mph - N/A   Mostly Cloudy
3:53 PM 63.0 °F 48.9 °F 60% 29.81 in 10.0 mi South 3.5 mph - N/A   Mostly Cloudy
4:53 PM 60.1 °F 51.1 °F 72% 29.80 in 10.0 mi SSE 3.5 mph - N/A   Partly Cloudy
5:53 PM 60.1 °F 54.0 °F 80% 29.81 in 10.0 mi South 4.6 mph - N/A   Mostly Cloudy
6:53 PM 62.1 °F 57.9 °F 86% 29.81 in 10.0 mi South 4.6 mph - N/A   Clear
7:53 PM 63.0 °F 60.1 °F 90% 29.81 in 10.0 mi South 6.9 mph - N/A   Scattered Clouds
8:53 PM 63.0 °F 60.1 °F 90% 29.81 in 9.0 mi SSW 6.9 mph - N/A   Mostly Cloudy
9:53 PM 63.0 °F 60.1 °F 90% 29.84 in 9.0 mi SSW 4.6 mph - 0.00 in Rain Light Rain
10:53 PM 62.1 °F 59.0 °F 90% 29.83 in 8.0 mi West 3.5 mph - 0.00 in   Mostly Cloudy
11:07 PM 62.6 °F 59.0 °F 88% 29.82 in 8.0 mi SSW 3.5 mph - N/A   Scattered Clouds
11:53 PM 61.0 °F 59.0 °F 93% 29.81 in 6.0 mi Calm Calm - N/A   Scattered Clouds